Temp
-12 -12 -10 -10 -11 -11 -11 -10 -9 -10 -10 -10 -9 -9 -10 -12 -12 -11 -11 -12 -11 -11 -12 -13 -13 -14 -13 -12 -13 -13 -13 -12 -12 -12 -12 -12 -12 -13 -12 -13 -12 -12 -12 -12
-11 -9 -10 -12 -12 -11 -11 -10 -9 -10 -11 -11 -10 -9 -10 -12 -12 -12 -11 -11 -11 -11 -12 -12 -13 -13 -12 -12 -13 -13 -13 -12 -12 -12 -12 -13 -12 -13 -13 -13 -12 -12 -13 -13
-11 -11 -12 -12 -11 -11 -10 -10 -10 -10 -11 -11 -11 -9 -11 -11 -11 -11 -11 -11 -11 -12 -12 -13 -13 -13 -12 -13 -13 -13 -12 -12 -12 -12 -13 -12 -12 -12 -12 -12 -12 -12 -13 -13
-10 -11 -12 -12 -10 -10 -9 -10 -10 -11 -11 -11 -12 -10 -11 -11 -11 -11 -11 -10 -11 -12 -13 -13 -13 -12 -12 -13 -13 -12 -12 -12 -12 -12 -13 -12 -12 -12 -12 -13 -13 -13 -13 -13
-9 -9 -10 -10 -10 -10 -9 -10 -11 -11 -12 -12 -12 -11 -10 -11 -10 -9 -9 -11 -11 -12 -13 -13 -12 -12 -13 -13 -12 -12 -12 -12 -12 -12 -12 -13 -12 -13 -13 -13 -12 -12 -13 -13
-10 -11 -11 -10 -10 -11 -10 -11 -12 -12 -11 -11 -11 -11 -10 -11 -10 -9 -10 -10 -11 -12 -12 -11 -12 -12 -12 -12 -12 -12 -12 -12 -12 -12 -12 -12 -12 -13 -13 -13 -13 -13 -13 -13
-10 -10 -10 -10 -10 -11 -11 -11 -12 -12 -11 -8 -11 -11 -11 -11 -10 -10 -9 -11 -12 -11 -11 -11 -12 -12 -12 -12 -12 -12 -12 -12 -12 -12 -12 -12 -12 -12 -13 -13 -12 -13 -13 -14
-10 -10 -10 -9 -9 -10 -10 -12 -11 -10 -10 -10 -12 -11 -11 -11 -10 -10 -10 -11 -12 -12 -11 -11 -12 -12 -12 -11 -12 -12 -12 -11 -12 -12 -12 -12 -12 -12 -13 -13 -12 -13 -13 -14
-10 -10 -11 -10 -11 -10 -11 -10 -10 -10 -12 -12 -11 -11 -11 -10 -10 -10 -11 -12 -12 -11 -11 -11 -11 -11 -11 -12 -12 -12 -12 -11 -12 -12 -12 -12 -12 -13 -13 -13 -12 -13 -13 -14
-11 -10 -11 -11 -11 -11 -10 -11 -11 -12 -12 -11 -11 -11 -10 -10 -10 -10 -11 -12 -11 -11 -11 -11 -11 -11 -11 -11 -12 -12 -12 -11 -11 -12 -12 -11 -12 -12 -13 -13 -12 -13 -13 -14
-12 -11 -11 -12 -9 -9 -10 -11 -12 -12 -11 -11 -11 -10 -11 -12 -11 -11 -11 -11 -10 -10 -10 -11 -11 -11 -11 -11 -11 -11 -12 -12 -12 -12 -12 -12 -12 -12 -13 -13 -13 -13 -13 -13
-12 -12 -12 -10 -10 -11 -11 -11 -10 -10 -10 -11 -11 -9 -11 -11 -11 -12 -11 -11 -11 -11 -10 -11 -11 -11 -12 -11 -11 -12 -12 -12 -12 -12 -12 -12 -12 -12 -13 -12 -12 -13 -13 -13
-13 -13 -12 -11 -11 -11 -11 -11 -11 -10 -12 -11 -11 -10 -10 -10 -10 -11 -11 -11 -12 -10 -10 -10 -11 -11 -12 -12 -11 -12 -12 -12 -12 -12 -12 -13 -12 -13 -13 -13 -13 -13 -13 -13
-12 -12 -12 -11 -10 -11 -10 -11 -11 -11 -11 -10 -10 -10 -10 -9 -10 -11 -11 -11 -11 -11 -10 -11 -11 -11 -12 -12 -11 -12 -12 -12 -12 -12 -12 -12 -12 -13 -13 -13 -13 -13 -13 -13
-12 -11 -11 -11 -11 -11 -11 -10 -10 -10 -10 -10 -10 -10 -10 -10 -11 -11 -11 -10 -11 -11 -10 -11 -11 -11 -12 -12 -11 -12 -12 -12 -12 -12 -12 -12 -12 -13 -12 -13 -13 -13 -13 -13
-12 -11 -11 -11 -12 -12 -11 -11 -11 -11 -10 -10 -10 -10 -11 -11 -11 -11 -10 -10 -10 -10 -10 -11 -11 -11 -11 -12 -11 -12 -12 -12 -12 -12 -12 -12 -12 -12 -12 -13 -12 -13 -13 -14
-12 -12 -12 -11 -12 -12 -12 -12 -11 -12 -11 -11 -10 -9 -11 -10 -10 -11 -10 -10 -10 -10 -11 -10 -11 -11 -11 -11 -11 -11 -12 -12 -12 -12 -12 -12 -12 -12 -12 -12 -12 -13 -13 -14
-13 -12 -11 -11 -13 -13 -11 -12 -11 -10 -10 -11 -11 -10 -11 -11 -10 -11 -12 -11 -10 -11 -10 -10 -10 -11 -11 -11 -11 -11 -12 -12 -12 -12 -12 -12 -12 -12 -12 -12 -12 -12 -13 -14
-14 -13 -11 -12 -12 -12 -12 -12 -11 -11 -11 -12 -11 -11 -10 -11 -11 -10 -10 -10 -10 -11 -11 -10 -10 -11 -11 -11 -11 -11 -12 -12 -11 -12 -12 -12 -12 -12 -12 -12 -12 -13 -13 -13
-15 -14 -13 -12 -13 -13 -12 -13 -12 -12 -11 -11 -11 -11 -10 -11 -9 -9 -10 -10 -10 -10 -11 -10 -10 -10 -11 -11 -12 -12 -12 -12 -12 -12 -12 -12 -12 -12 -12 -12 -13 -13 -13 -13
-15 -15 -14 -14 -14 -13 -13 -13 -13 -12 -12 -12 -12 -11 -11 -10 -10 -10 -10 -10 -10 -10 -11 -11 -10 -10 -11 -11 -12 -12 -12 -12 -12 -12 -12 -13 -12 -13 -13 -13 -13 -13 -13 -13
-15 -15 -14 -15 -14 -14 -13 -13 -12 -12 -12 -12 -13 -12 -11 -11 -11 -10 -10 -10 -10 -10 -10 -11 -10 -10 -10 -11 -12 -12 -12 -12 -12 -12 -12 -13 -13 -13 -13 -13 -13 -13 -13 -13
-15 -15 -14 -15 -14 -14 -14 -13 -13 -13 -12 -12 -12 -13 -12 -11 -11 -10 -10 -10 -10 -10 -10 -11 -11 -10 -10 -11 -11 -12 -12 -12 -12 -12 -13 -13 -13 -13 -13 -12 -12 -12 -12 -12
-14 -15 -15 -15 -15 -14 -14 -13 -13 -13 -13 -12 -12 -12 -12 -12 -11 -11 -11 -10 -10 -10 -10 -10 -11 -10 -11 -11 -11 -12 -12 -12 -12 -12 -12 -13 -13 -13 -13 -12 -12 -12 -12 -12
-15 -15 -15 -14 -15 -14 -14 -13 -13 -13 -13 -13 -12 -12 -12 -13 -11 -11 -11 -11 -10 -10 -10 -11 -11 -11 -11 -11 -11 -11 -12 -12 -12 -12 -12 -13 -13 -13 -13 -13 -13 -13 -13 -13
-15 -14 -15 -15 -14 -14 -14 -13 -13 -14 -13 -13 -12 -13 -12 -12 -12 -11 -12 -11 -11 -10 -11 -11 -11 -10 -10 -11 -11 -11 -11 -11 -12 -12 -12 -12 -12 -13 -13 -13 -13 -13 -13 -13
Height
5765 5766 5763 5781 5789 5791 5793 5794 5796 5800 5798 5795 5797 5796 5796 5797 5798 5797 5797 5798 5797 5795 5791 5786 5783 5780 5777 5774 5770 5765 5761 5756 5752 5748 5743 5737 5731 5725 5719 5715 5711 5706 5701 5695
5752 5750 5767 5772 5779 5782 5784 5787 5789 5794 5795 5791 5793 5790 5789 5790 5791 5791 5793 5793 5792 5790 5787 5785 5781 5777 5774 5769 5765 5760 5757 5752 5748 5744 5739 5732 5727 5722 5716 5711 5706 5703 5699 5693
5744 5756 5759 5764 5770 5773 5778 5780 5787 5788 5790 5787 5786 5785 5785 5785 5786 5787 5789 5789 5787 5785 5782 5780 5776 5773 5769 5765 5761 5756 5753 5749 5745 5741 5735 5729 5724 5720 5714 5708 5704 5701 5696 5690
5736 5746 5750 5755 5759 5767 5768 5778 5781 5781 5783 5782 5784 5779 5780 5783 5785 5785 5787 5786 5784 5780 5779 5776 5772 5769 5764 5761 5757 5753 5750 5746 5742 5737 5731 5726 5721 5716 5711 5707 5703 5698 5694 5688
5732 5738 5743 5748 5757 5761 5765 5773 5775 5777 5776 5776 5777 5777 5781 5779 5780 5780 5782 5781 5779 5775 5773 5771 5768 5764 5761 5757 5754 5750 5747 5744 5739 5734 5729 5724 5720 5716 5711 5706 5702 5694 5690 5686
5722 5729 5731 5738 5745 5750 5762 5762 5766 5769 5769 5764 5773 5773 5773 5773 5776 5777 5779 5773 5771 5771 5768 5766 5763 5760 5757 5754 5751 5747 5744 5741 5736 5731 5727 5723 5718 5714 5710 5705 5699 5694 5689 5684
5710 5715 5724 5730 5734 5741 5747 5751 5754 5757 5756 5761 5765 5766 5768 5770 5771 5774 5770 5769 5769 5768 5765 5762 5759 5757 5754 5751 5748 5745 5741 5738 5733 5728 5725 5721 5717 5714 5709 5704 5698 5693 5688 5684
5706 5712 5716 5724 5726 5734 5737 5744 5747 5747 5754 5759 5760 5761 5766 5768 5769 5769 5766 5766 5768 5764 5761 5759 5756 5754 5751 5749 5746 5743 5739 5735 5731 5727 5724 5721 5717 5714 5709 5704 5699 5693 5689 5686
5698 5703 5713 5717 5724 5731 5735 5735 5748 5748 5750 5754 5758 5758 5761 5762 5764 5764 5763 5766 5766 5763 5758 5755 5752 5751 5749 5747 5745 5741 5737 5734 5729 5726 5723 5721 5718 5714 5709 5704 5699 5694 5691 5689
5693 5699 5707 5712 5716 5722 5726 5738 5737 5737 5743 5747 5752 5753 5756 5757 5759 5759 5762 5764 5762 5757 5754 5753 5750 5748 5747 5746 5743 5740 5737 5732 5728 5725 5723 5721 5718 5715 5710 5705 5701 5696 5694 5692
5682 5689 5697 5701 5707 5714 5717 5721 5728 5736 5740 5742 5747 5750 5754 5753 5754 5757 5761 5760 5757 5754 5752 5750 5748 5747 5745 5744 5742 5739 5735 5731 5728 5726 5723 5721 5719 5716 5710 5706 5702 5699 5698 5696
5669 5678 5686 5698 5700 5710 5716 5722 5725 5728 5732 5737 5742 5747 5748 5751 5753 5756 5758 5756 5753 5752 5751 5749 5747 5746 5744 5743 5741 5738 5735 5732 5729 5726 5724 5722 5719 5717 5713 5709 5706 5703 5702 5700
5654 5660 5677 5685 5691 5697 5703 5712 5718 5724 5729 5732 5737 5745 5744 5747 5748 5752 5755 5753 5751 5749 5748 5747 5746 5744 5742 5742 5741 5737 5735 5732 5730 5728 5726 5724 5721 5719 5717 5714 5711 5708 5706 5706
5637 5649 5663 5676 5687 5696 5700 5704 5712 5718 5721 5727 5731 5738 5738 5741 5744 5749 5749 5752 5751 5747 5746 5746 5745 5743 5741 5741 5740 5737 5735 5734 5731 5729 5727 5726 5724 5722 5720 5717 5715 5714 5713 5712
5631 5644 5656 5671 5683 5689 5697 5702 5706 5710 5718 5721 5731 5732 5734 5737 5741 5745 5747 5749 5749 5746 5745 5744 5744 5742 5741 5740 5740 5738 5736 5735 5732 5730 5729 5727 5726 5724 5723 5721 5719 5720 5718 5718
5624 5642 5651 5661 5674 5681 5686 5693 5699 5706 5712 5717 5725 5728 5732 5735 5738 5740 5743 5746 5746 5744 5744 5743 5743 5743 5741 5740 5740 5739 5737 5735 5733 5732 5731 5729 5728 5728 5727 5725 5724 5724 5724 5723
5618 5631 5640 5650 5664 5675 5674 5682 5690 5700 5707 5712 5718 5726 5728 5729 5733 5737 5739 5742 5743 5743 5742 5742 5742 5743 5742 5741 5741 5740 5738 5737 5735 5734 5733 5732 5731 5731 5731 5730 5729 5727 5726 5726
5610 5621 5632 5644 5656 5657 5665 5679 5686 5694 5702 5707 5713 5720 5724 5726 5729 5732 5736 5739 5741 5742 5740 5741 5742 5742 5742 5741 5740 5741 5740 5738 5737 5737 5735 5735 5735 5735 5736 5735 5734 5732 5731 5730
5601 5611 5624 5634 5642 5654 5663 5673 5677 5684 5693 5702 5708 5714 5719 5722 5725 5727 5732 5736 5739 5740 5739 5739 5741 5741 5742 5742 5741 5741 5741 5740 5739 5739 5738 5739 5739 5739 5739 5740 5739 5738 5738 5738
5598 5608 5618 5627 5636 5644 5662 5671 5678 5687 5688 5697 5703 5708 5713 5716 5719 5726 5729 5733 5737 5739 5738 5737 5739 5741 5741 5742 5741 5741 5742 5742 5741 5740 5740 5742 5742 5743 5743 5743 5743 5743 5743 5743
5589 5597 5612 5619 5629 5640 5656 5658 5670 5674 5686 5692 5698 5702 5706 5710 5719 5723 5724 5728 5733 5735 5736 5735 5737 5738 5739 5741 5741 5741 5742 5743 5743 5742 5742 5743 5745 5745 5747 5748 5748 5747 5748 5748
5578 5592 5604 5611 5623 5631 5641 5653 5662 5664 5671 5680 5689 5695 5701 5706 5711 5716 5719 5723 5726 5732 5733 5734 5735 5737 5737 5739 5740 5740 5741 5742 5743 5744 5743 5744 5746 5747 5748 5749 5750 5751 5752 5752
5573 5581 5591 5602 5612 5620 5631 5643 5653 5658 5665 5670 5676 5686 5695 5701 5705 5709 5715 5717 5721 5727 5729 5730 5732 5733 5736 5737 5739 5739 5740 5741 5743 5744 5745 5746 5746 5747 5749 5750 5751 5753 5754 5755
5556 5569 5584 5598 5603 5612 5622 5633 5644 5653 5658 5665 5671 5678 5687 5696 5701 5704 5708 5712 5716 5721 5725 5727 5728 5730 5732 5734 5735 5737 5738 5739 5741 5743 5745 5746 5747 5748 5750 5752 5753 5754 5756 5757
5540 5558 5575 5587 5597 5606 5617 5627 5638 5646 5653 5657 5663 5670 5678 5685 5692 5696 5702 5706 5710 5716 5721 5722 5724 5727 5729 5731 5733 5734 5736 5737 5739 5741 5744 5746 5747 5749 5750 5752 5755 5756 5757 5758
5535 5549 5564 5577 5588 5599 5609 5621 5630 5638 5646 5652 5658 5663 5670 5677 5683 5688 5694 5698 5703 5710 5716 5719 5721 5723 5724 5728 5730 5732 5733 5735 5737 5739 5742 5744 5745 5748 5750 5752 5753 5755 5757 5758
Wind_Speed
58 62 60 47 41 32 32 30 24 15 18 24 21 25 15 13 21 18 20 21 21 17 15 24 29 27 29 26 23 25 25 24 25 26 25 26 24 26 21 23 21 19 22 21
44 50 41 40 34 36 34 30 28 18 20 27 22 24 17 13 23 24 20 21 21 22 20 24 30 29 27 23 22 25 25 24 26 24 25 25 24 24 26 25 18 16 19 20
30 29 37 35 36 35 33 33 22 22 19 27 23 23 21 18 21 23 19 19 21 21 26 30 31 31 23 20 24 25 23 23 24 22 24 22 23 24 22 20 14 16 19 20
36 32 34 37 38 36 39 28 22 23 23 26 23 24 23 20 19 21 17 19 17 20 28 30 36 26 18 20 23 21 21 21 20 20 21 20 23 25 19 17 18 19 20 15
34 35 38 40 36 38 38 28 24 21 26 20 25 27 8 10 14 13 12 10 15 19 25 31 23 15 16 20 18 20 19 18 17 20 17 18 21 20 19 19 23 23 13 10
47 44 43 40 39 39 30 33 28 29 29 31 16 15 3 8 12 10 10 13 17 21 21 17 15 13 16 18 17 19 17 14 16 18 14 17 20 18 23 22 17 18 10 8
46 47 43 39 42 40 39 38 37 35 36 17 12 13 1 8 11 9 10 15 17 25 17 17 15 14 15 16 19 16 14 14 15 13 12 14 19 18 23 20 16 15 9 7
36 36 37 32 39 42 45 38 40 37 27 15 15 17 2 8 11 6 11 16 17 27 13 13 12 13 13 13 16 14 12 11 13 7 10 14 18 18 20 16 13 12 7 6
37 34 29 31 28 37 39 37 26 28 21 26 16 16 13 12 12 5 11 15 16 15 13 15 10 13 11 16 12 11 9 9 11 8 11 13 14 16 18 14 12 10 7 7
36 32 28 25 30 32 35 31 36 32 28 25 19 18 15 11 14 9 11 13 15 20 14 15 11 10 12 10 9 9 6 8 10 7 9 9 12 15 14 15 14 10 9 10
42 38 31 34 35 34 37 41 37 28 27 25 17 14 7 13 20 16 14 16 16 23 12 11 7 7 10 6 7 7 5 7 8 7 7 8 10 14 18 13 14 13 12 13
41 44 36 34 36 30 29 33 33 31 31 28 22 14 18 16 11 9 13 14 19 22 7 9 5 8 6 5 6 5 5 5 9 9 8 11 12 13 19 14 15 16 14 14
45 46 42 41 38 38 40 38 38 33 30 28 25 12 20 18 7 10 9 10 17 22 7 11 8 7 4 3 5 5 7 7 9 9 10 11 12 14 17 15 14 17 20 16
60 54 48 47 42 38 39 40 36 35 34 27 26 17 17 12 10 8 11 10 13 21 5 10 7 7 2 2 3 5 5 6 7 7 9 9 10 13 16 17 14 17 18 20
60 59 54 46 41 39 37 37 35 34 28 28 22 21 20 16 11 12 12 9 9 11 5 6 7 5 2 2 2 5 5 4 8 7 9 10 10 13 14 16 16 16 18 20
61 56 53 49 45 43 43 42 37 34 31 29 23 23 21 20 19 17 13 6 5 9 10 5 7 4 1 3 2 5 5 7 7 8 12 11 9 14 15 18 20 21 17 18
61 59 56 54 49 45 52 47 43 36 32 29 26 18 26 22 20 18 11 8 7 7 11 7 8 5 1 3 4 4 6 8 8 7 11 11 13 15 17 18 17 15 14 16
62 62 61 56 51 58 53 47 43 37 30 28 26 21 24 27 19 17 15 10 7 4 11 8 8 7 1 2 4 4 5 7 8 8 13 16 16 18 19 20 21 22 25 23
63 65 62 57 58 57 53 48 46 41 38 31 28 24 25 26 23 21 17 6 5 3 10 10 8 9 5 1 2 4 5 5 7 9 12 15 16 15 14 16 18 20 23 24
60 59 59 60 58 61 53 45 42 30 41 39 30 28 25 29 26 16 13 9 1 0 10 13 11 13 8 3 1 2 5 6 7 9 11 11 14 15 14 14 17 18 20 21
62 60 59 55 55 62 55 36 43 42 37 26 31 28 25 26 20 19 18 15 7 5 4 14 12 13 12 7 5 4 6 9 8 9 9 9 11 15 16 14 14 14 15 16
68 63 63 57 48 61 61 51 47 41 38 30 24 30 25 21 22 24 21 19 17 6 4 9 15 12 15 15 7 7 6 8 11 10 9 8 8 10 12 12 10 11 12 13
66 69 71 63 49 57 53 60 54 41 37 43 33 32 26 24 26 26 21 20 21 11 8 8 15 16 12 16 10 8 8 8 12 14 12 10 8 8 10 11 12 12 15 17
57 72 70 67 53 54 55 61 56 50 42 44 35 38 32 30 28 27 25 24 23 19 9 9 18 17 13 15 15 12 11 9 10 15 15 13 12 11 9 9 12 14 13 13
46 71 72 73 60 52 59 60 56 46 45 47 43 35 35 33 34 34 30 28 25 20 13 15 16 17 16 19 12 11 17 14 12 12 15 15 14 13 12 11 12 12 12 11
51 69 74 74 62 53 59 63 57 51 56 57 52 44 43 38 31 31 32 32 29 23 15 18 22 20 20 20 18 13 14 17 15 14 14 16 17 15 13 13 13 13 12 12
Wind_Direction
243 247 248 247 255 255 254 253 244 241 236 242 265 277 270 301 290 308 313 302 309 318 329 333 336 314 301 299 306 310 316 315 313 314 319 321 325 329 330 323 319 314 327 322
244 243 247 235 235 247 248 241 240 233 224 260 265 268 257 267 284 295 306 305 305 310 323 328 327 311 302 301 307 308 310 312 312 315 320 321 325 329 322 320 317 319 325 326
245 245 223 225 239 246 245 241 241 255 228 242 269 270 259 268 283 291 300 291 290 314 316 315 313 303 300 305 308 306 306 310 311 319 317 322 323 326 325 331 328 320 328 327
240 229 218 222 234 239 237 240 239 242 241 256 247 258 253 277 282 271 277 295 317 310 293 302 304 295 307 304 310 310 308 312 315 321 320 325 332 337 341 336 333 324 323 322
242 238 231 227 233 244 245 239 240 234 247 247 221 246 242 267 274 276 306 315 333 332 322 297 293 304 311 316 311 309 306 312 319 321 321 328 335 335 337 337 333 325 321 326
234 236 235 235 237 239 233 225 225 234 235 235 220 259 84 244 266 295 304 0 357 328 298 291 313 314 313 313 313 307 307 316 316 320 323 333 339 337 342 340 347 347 344 341
224 229 231 227 227 224 213 217 212 222 223 234 237 261 273 250 278 283 352 6 338 328 309 302 312 314 312 307 313 307 312 321 321 317 331 337 346 341 342 349 2 357 1 11
228 222 222 221 223 215 216 220 222 215 222 231 247 244 177 250 277 309 347 355 332 319 307 318 311 311 309 310 312 309 318 341 332 334 342 344 346 346 347 2 9 4 18 53
222 218 217 222 223 215 213 222 216 219 219 248 225 224 228 257 277 316 355 359 328 318 329 332 316 323 318 318 308 312 327 346 331 321 336 346 355 2 353 19 16 16 42 86
224 223 209 211 207 210 214 216 206 213 224 235 216 231 262 277 292 328 345 341 316 338 317 318 319 313 310 311 310 316 322 345 342 329 326 1 16 8 17 41 25 52 69 91
214 218 208 204 206 206 204 206 210 215 227 235 243 223 234 251 269 285 309 329 331 341 311 308 326 313 311 309 317 342 4 4 6 7 6 34 32 14 17 32 43 81 77 99
202 215 207 206 209 208 213 219 226 222 225 229 235 200 212 227 248 273 315 329 333 335 308 307 295 316 305 304 329 21 34 32 36 22 58 48 50 39 35 66 64 79 87 100
191 207 207 203 205 198 206 209 220 228 224 230 237 200 227 239 268 277 306 344 325 325 305 312 283 323 299 278 336 49 44 48 42 31 61 56 55 49 49 67 71 64 93 106
199 196 206 208 209 210 210 208 214 225 225 224 223 216 241 251 252 275 302 315 317 319 276 298 278 331 283 253 14 68 60 39 28 20 51 67 72 59 48 66 79 75 98 96
200 202 201 198 209 210 216 219 218 219 221 228 212 221 236 251 257 266 281 337 331 311 309 294 266 327 260 234 77 81 70 44 32 48 64 85 75 72 65 77 89 99 91 101
195 202 202 196 201 206 216 219 222 226 228 232 216 218 221 244 243 252 279 6 344 306 290 286 244 286 311 211 146 101 69 71 58 74 80 79 70 85 81 85 96 91 89 87
192 194 199 199 195 200 213 215 218 225 228 231 227 210 223 237 244 249 276 333 350 342 296 296 236 231 320 195 184 116 90 85 76 82 87 80 90 95 95 88 93 98 99 97
191 192 201 200 191 201 217 214 222 220 224 227 230 211 216 238 250 254 261 285 344 357 300 289 243 224 243 184 179 158 117 91 86 81 91 100 97 95 94 93 87 85 89 98
192 191 195 197 196 204 210 210 217 213 220 224 225 224 216 220 227 240 243 271 344 340 279 281 252 225 202 256 161 194 154 117 100 97 99 110 117 110 99 92 91 92 93 95
197 195 194 199 195 202 202 208 219 221 226 225 221 223 212 218 232 246 255 261 157 262 242 263 262 231 199 218 286 197 194 157 129 116 107 109 115 112 114 108 100 97 98 100
197 199 193 204 196 202 194 193 211 215 216 216 222 219 220 223 237 247 250 260 253 286 256 257 250 231 223 226 243 222 199 188 161 143 128 122 120 115 106 105 101 95 94 97
192 195 194 204 196 202 202 206 202 209 215 209 221 236 231 242 244 238 246 254 264 267 279 245 248 248 234 227 232 241 201 203 189 172 159 151 144 133 124 116 109 113 112 104
191 194 195 200 195 199 200 201 202 210 203 207 208 220 235 238 236 244 234 244 254 249 251 229 250 272 255 238 232 227 214 207 210 197 183 175 171 161 140 125 123 123 121 117
180 193 196 199 196 198 198 198 202 202 210 213 215 216 216 223 225 239 241 242 248 251 232 231 239 265 267 230 237 221 218 214 213 212 198 190 183 172 161 149 143 137 131 124
168 182 195 198 199 197 202 197 200 208 209 215 216 216 220 225 230 232 233 237 238 245 218 212 237 255 254 238 242 222 213 206 212 216 204 193 194 187 177 166 160 155 151 146
171 177 188 194 194 191 195 199 197 203 212 219 221 221 226 215 211 224 226 233 237 237 217 204 226 250 263 246 239 237 217 209 210 218 217 204 202 201 198 190 186 184 177 170